FW6620 Weather Reports


time (UTC)temp
C
wind
direction
speed
KPH
gust
KPH
rain 1hr
cm
rain 24hr
cm
rain mn
cm
humidity
%
barometer
mb
20260510055048 22 0 0.0 0.0 0.00 0.00 0.00 83 1011.4
20260510054554 22 0 0.0 0.0 0.00 0.00 0.00 84 1011.5
20260510054046 22 0 0.0 0.0 0.00 0.00 0.00 86 1011.5
20260510053545 22 0 0.0 0.0 0.00 0.00 0.00 86 1011.5
20260510053100 22 0 0.0 0.0 0.00 0.00 0.00 85 1011.6
20260510052545 23 0 0.0 0.0 0.00 0.00 0.00 86 1011.5
20260510052045 23 0 0.0 0.0 0.00 0.00 0.00 86 1011.6
20260510051552 23 0 0.0 0.0 0.00 0.00 0.00 85 1011.6
20260510051046 23 0 0.0 0.0 0.00 0.00 0.00 85 1011.5
20260510050545 23 0 0.0 0.0 0.00 0.00 0.00 85 1011.5
20260510050057 23 0 0.0 0.0 0.00 0.00 0.00 85 1011.6
20260510045545 23 0 0.0 0.0 0.00 0.00 0.00 84 1011.5
20260510045047 23 0 0.0 0.0 0.00 0.00 0.00 84 1011.5
20260510044558 23 0 0.0 0.0 0.00 0.00 0.00 85 1011.5
20260510044046 23 0 0.0 1.6 0.00 0.00 0.00 85 1011.4
20260510043547 23 0 0.0 1.6 0.00 0.00 0.00 85 1011.4
20260510043108 23 0 0.0 1.6 0.00 0.00 0.00 85 1011.5
20260510042545 23 0 0.0 0.0 0.00 0.00 0.00 85 1011.4
20260510042045 24 0 0.0 0.0 0.00 0.00 0.00 85 1011.3
20260510041558 24 0 0.0 0.0 0.00 0.00 0.00 84 1011.2
20260510041045 24 0 0.0 0.0 0.00 0.00 0.00 84 1011.4
20260510040546 24 0 0.0 0.0 0.00 0.00 0.00 83 1011.3
20260510040059 24 0 0.0 0.0 0.00 0.00 0.00 83 1011.2
20260510035545 24 0 0.0 0.0 0.00 0.00 0.00 83 1011.1
20260510035045 25 0 0.0 0.0 0.00 0.00 0.00 82 1011.1
20260510034559 25 0 0.0 0.0 0.00 0.00 0.00 82 1011.1
20260510034046 25 0 0.0 0.0 0.00 0.00 0.00 82 1011.0
20260510033547 25 0 0.0 0.0 0.00 0.00 0.00 81 1011.0
20260510033126 25 0 0.0 0.0 0.00 0.00 0.00 82 1010.9
20260510032547 25 0 0.0 0.0 0.00 0.00 0.00 81 1010.8
20260510032045 25 0 0.0 0.0 0.00 0.00 0.00 80 1010.8
20260510031558 25 0 0.0 0.0 0.00 0.00 0.00 80 1010.7
20260510031045 26 0 0.0 0.0 0.00 0.00 0.00 80 1010.7
20260510030545 26 0 0.0 0.0 0.00 0.00 0.00 79 1010.7
20260510030057 26 0 0.0 0.0 0.00 0.00 0.00 79 1010.7
20260510025545 26 0 0.0 0.0 0.00 0.00 0.00 78 1010.6
20260510025046 26 0 0.0 0.0 0.00 0.00 0.00 78 1010.5
20260510024547 26 0 0.0 0.0 0.00 0.00 0.00 78 1010.4
20260510024047 26 0 0.0 1.6 0.00 0.00 0.00 78 1010.3
20260510023545 27 0 0.0 1.6 0.00 0.00 0.00 78 1010.2
20260510023048 27 0 0.0 0.0 0.00 0.00 0.00 77 1010.1
20260510022545 27 0 0.0 1.6 0.00 0.00 0.00 77 1010.1
20260510022047 27 0 0.0 1.6 0.00 0.00 0.00 77 1010.1
20260510021546 27 0 0.0 4.8 0.00 0.00 0.00 77 1010.0
20260510021044 27 0 0.0 4.8 0.00 0.00 0.00 77 1009.9
20260510020546 27 0 0.0 4.8 0.00 0.00 0.00 77 1009.9
20260510020049 27 0 0.0 4.8 0.00 0.00 0.00 77 1009.8
20260510015546 27 17 0.0 4.8 0.00 0.00 0.00 77 1009.8
20260510015046 27 0 0.0 3.2 0.00 0.00 0.00 76 1009.7
20260510014551 27 0 0.0 0.0 0.00 0.00 0.00 76 1009.7
20260510014045 27 0 0.0 0.0 0.00 0.00 0.00 75 1009.6
20260510013546 27 0 0.0 0.0 0.00 0.00 0.00 74 1009.5
20260510013046 27 0 0.0 0.0 0.00 0.00 0.00 74 1009.4
20260510012551 28 0 0.0 0.0 0.00 0.00 0.00 74 1009.4
20260510012045 28 0 0.0 4.8 0.00 0.00 0.00 73 1009.5
20260510011549 28 0 0.0 4.8 0.00 0.00 0.00 72 1009.3
20260510011048 28 0 0.0 3.2 0.00 0.00 0.00 72 1009.3
20260510010546 28 0 0.0 1.6 0.00 0.00 0.00 70 1009.3
20260510010051 28 0 0.0 3.2 0.00 0.00 0.00 70 1009.3
20260510005547 28 0 0.0 3.2 0.00 0.00 0.00 70 1009.3
20260510005047 28 0 0.0 3.2 0.00 0.00 0.00 70 1009.2
20260510004548 28 0 0.0 4.8 0.00 0.00 0.00 69 1009.2
20260510004045 28 0 0.0 4.8 0.00 0.00 0.00 69 1009.2
20260510003546 28 16 0.0 3.2 0.00 0.00 0.00 68 1009.0
20260510003048 28 16 0.0 1.6 0.00 0.00 0.00 68 1009.1
20260510002548 29 0 0.0 3.2 0.00 0.00 0.00 68 1009.1
20260510002045 29 0 0.0 1.6 0.00 0.00 0.00 67 1009.0
20260510001549 29 0 0.0 1.6 0.00 0.00 0.00 67 1008.9
20260510001046 29 0 0.0 4.8 0.00 0.00 0.00 67 1008.9
20260510000546 29 0 0.0 4.8 0.00 0.00 0.00 67 1008.9
20260509235545 29 0 0.0 3.2 0.00 0.00 0.00 65 1008.8
20260509235045 29 0 0.0 4.8 0.00 0.00 0.00 66 1008.7
20260509234600 30 0 0.0 4.8 0.00 0.00 0.00 65 1008.6
20260509234046 30 16 0.0 4.8 0.00 0.00 0.00 65 1008.6
20260509233546 30 16 0.0 4.8 0.00 0.00 0.00 64 1008.7
20260509233050 30 0 0.0 1.6 0.00 0.00 0.00 65 1008.6
20260509232545 30 0 0.0 4.8 0.00 0.00 0.00 63 1008.7
20260509232045 30 0 0.0 4.8 0.00 0.00 0.00 63 1008.6
20260509231553 30 0 0.0 4.8 0.00 0.00 0.00 64 1008.6
20260509231045 30 0 0.0 4.8 0.00 0.00 0.00 63 1008.6
20260509230546 30 16 0.0 4.8 0.00 0.00 0.00 63 1008.6
20260509230052 30 0 1.6 4.8 0.00 0.00 0.00 62 1008.6
20260509225546 30 0 0.0 3.2 0.00 0.00 0.00 63 1008.6
20260509225047 30 16 0.0 3.2 0.00 0.00 0.00 63 1008.6
20260509224556 30 16 0.0 3.2 0.00 0.00 0.00 59 1008.6
20260509224047 30 0 0.0 4.8 0.00 0.00 0.00 60 1008.6
20260509223548 30 0 0.0 4.8 0.00 0.00 0.00 60 1008.7
20260509223100 30 0 1.6 4.8 0.00 0.00 0.00 58 1008.6
20260509222549 30 0 0.0 3.2 0.00 0.00 0.00 58 1008.5
20260509222047 30 14 0.0 3.2 0.00 0.00 0.00 57 1008.6
20260509221557 30 0 0.0 3.2 0.00 0.00 0.00 57 1008.6
20260509221048 30 0 0.0 3.2 0.00 0.00 0.00 52 1008.5
20260509220546 30 0 0.0 3.2 0.00 0.00 0.00 52 1008.5
20260509220049 30 0 1.6 3.2 0.00 0.00 0.00 51 1008.5
20260509215548 30 0 0.0 3.2 0.00 0.00 0.00 54 1008.7
20260509215047 30 0 0.0 3.2 0.00 0.00 0.00 54 1008.5
20260509214551 29 14 0.0 3.2 0.00 0.00 0.00 57 1008.7
20260509214047 29 0 0.0 4.8 0.00 0.00 0.00 56 1008.8
20260509213547 29 14 0.0 4.8 0.00 0.00 0.00 57 1008.8
20260509213053 29 14 0.0 3.2 0.00 0.00 0.00 59 1008.9
20260509212549 29 14 0.0 4.8 0.00 0.00 0.00 60 1009.1
20260509212048 29 14 1.6 4.8 0.00 0.00 0.00 58 1009.0
20260509211554 29 10 0.0 4.8 0.00 0.00 0.00 59 1009.1
20260509211047 28 0 0.0 4.8 0.00 0.00 0.00 57 1009.2
20260509210547 28 0 0.0 6.4 0.00 0.00 0.00 59 1009.2
20260509205547 29 10 0.0 12.9 0.00 0.00 0.00 58 1009.3
20260509205051 29 14 4.8 11.3 0.00 0.00 0.00 59 1009.3
20260509204557 29 9 1.6 8.0 0.00 0.00 0.00 62 1009.3
20260509204048 29 18 3.2 8.0 0.00 0.00 0.00 61 1009.3
20260509203547 29 19 1.6 6.4 0.00 0.00 0.00 56 1009.4
20260509203055 29 22 0.0 6.4 0.00 0.00 0.00 57 1009.3
20260509202548 28 32 0.0 6.4 0.00 0.00 0.00 63 1009.4
20260509202048 28 0 0.0 4.8 0.00 0.00 0.00 63 1009.5
20260509201608 28 33 0.0 6.4 0.00 0.00 0.00 65 1009.6
20260509201047 28 33 1.6 6.4 0.00 0.00 0.00 68 1009.8
20260509200547 29 141 1.6 6.4 0.00 0.00 0.00 65 1010.0
20260509200107 30 34 0.0 8.0 0.00 0.00 0.00 65 1010.1
20260509195548 30 35 0.0 11.3 0.00 0.00 0.00 65 1010.0
20260509195048 30 74 1.6 11.3 0.00 0.00 0.00 63 1009.9
20260509194557 30 0 0.0 6.4 0.00 0.00 0.00 61 1009.9
20260509194045 30 0 0.0 3.2 0.00 0.00 0.00 66 1009.8
20260509193545 30 0 0.0 3.2 0.00 0.00 0.00 68 1009.7
20260509193053 30 0 0.0 3.2 0.00 0.00 0.00 67 1009.7
20260509192545 30 0 0.0 1.6 0.00 0.00 0.00 70 1009.7
20260509192045 30 0 0.0 3.2 0.00 0.00 0.00 69 1009.8
20260509191553 30 0 0.0 3.2 0.00 0.00 0.00 69 1009.8
20260509191044 30 18 0.0 4.8 0.00 0.00 0.00 70 1009.8
20260509190544 30 18 0.0 4.8 0.00 0.00 0.00 70 1009.9
20260509190051 30 18 0.0 3.2 0.00 0.00 0.00 73 1009.8
20260509185545 30 0 0.0 3.2 0.00 0.00 0.00 72 1010.0
20260509185044 30 0 0.0 3.2 0.00 0.00 0.00 70 1010.1
20260509184601 30 0 0.0 4.8 0.00 0.00 0.00 69 1010.1
20260509184045 30 0 0.0 4.8 0.00 0.00 0.00 68 1010.2
20260509183545 30 0 0.0 4.8 0.00 0.00 0.00 70 1010.3
20260509183052 30 18 0.0 6.4 0.00 0.00 0.00 70 1010.4
20260509182545 30 18 1.6 6.4 0.00 0.00 0.00 71 1010.6
20260509182045 29 18 0.0 3.2 0.00 0.00 0.00 75 1010.6
20260509181602 29 18 0.0 1.6 0.00 0.00 0.00 74 1010.7
20260509181046 29 0 0.0 3.2 0.00 0.00 0.00 72 1010.8
20260509180545 29 0 0.0 3.2 0.00 0.00 0.00 70 1010.9
20260509180053 29 18 0.0 4.8 0.00 0.00 0.00 71 1010.8
20260509175545 29 0 0.0 4.8 0.00 0.00 0.00 72 1010.9
20260509175045 29 0 0.0 4.8 0.00 0.00 0.00 72 1010.9
20260509174551 29 0 0.0 3.2 0.00 0.00 0.00 72 1011.0
20260509174045 29 0 0.0 4.8 0.00 0.00 0.00 73 1011.2
20260509173545 29 0 0.0 4.8 0.00 0.00 0.00 73 1011.2
20260509173104 29 18 1.6 4.8 0.00 0.00 0.00 74 1011.4
20260509172546 29 18 1.6 4.8 0.00 0.00 0.00 73 1011.4
20260509172046 28 18 1.6 4.8 0.00 0.00 0.00 74 1011.5
20260509171550 28 18 0.0 4.8 0.00 0.00 0.00 75 1011.5
20260509171044 28 0 0.0 3.2 0.00 0.00 0.00 75 1011.4
20260509170544 28 18 0.0 4.8 0.00 0.00 0.00 78 1011.4
20260509170049 28 0 0.0 6.4 0.00 0.00 0.00 78 1011.4
20260509165547 28 18 0.0 6.4 0.00 0.00 0.00 78 1011.4
20260509165048 28 18 0.0 6.4 0.00 0.00 0.00 80 1011.6
20260509164553 27 17 0.0 6.4 0.00 0.00 0.00 79 1011.5
20260509164045 27 0 1.6 6.4 0.00 0.00 0.00 79 1011.7
20260509163544 27 16 1.6 6.4 0.00 0.00 0.00 80 1011.6
20260509163052 27 0 0.0 4.8 0.00 0.00 0.00 83 1011.6
20260509162545 27 0 0.0 4.8 0.00 0.00 0.00 83 1011.5
20260509162048 26 0 0.0 4.8 0.00 0.00 0.00 84 1011.6
20260509161600 26 47 0.0 4.8 0.00 0.00 0.00 82 1011.6
20260509161044 26 0 0.0 3.2 0.00 0.00 0.00 85 1011.6
20260509160545 26 47 0.0 3.2 0.00 0.00 0.00 85 1011.6
20260509160053 26 0 0.0 3.2 0.00 0.00 0.00 86 1011.6
20260509155545 26 47 0.0 11.3 0.00 0.00 0.00 86 1011.6
20260509155045 25 0 0.0 11.3 0.00 0.00 0.00 86 1011.7
20260509154552 25 26 1.6 4.8 0.00 0.00 0.00 88 1011.8
20260509154047 25 0 0.0 8.0 0.00 0.00 0.00 90 1011.7
20260509153545 25 22 3.2 8.0 0.00 0.00 0.00 90 1011.6
20260509153057 25 24 0.0 6.4 0.00 0.00 0.00 92 1011.7
20260509152545 24 0 1.6 6.4 0.00 0.00 0.00 92 1011.6
20260509152045 24 25 3.2 6.4 0.00 0.00 0.00 93 1011.8
20260509151603 23 15 1.6 6.4 0.00 0.00 0.00 94 1011.9
20260509151045 23 21 0.0 4.8 0.00 0.00 0.00 94 1011.9
20260509150545 23 21 1.6 6.4 0.00 0.00 0.00 95 1011.7
20260509150054 23 21 0.0 6.4 0.00 0.00 0.00 95 1011.7
20260509145545 23 0 0.0 4.8 0.00 0.00 0.00 95 1011.7
20260509145046 23 0 0.0 4.8 0.00 0.00 0.00 96 1011.7
20260509144608 23 0 1.6 4.8 0.00 0.00 0.00 96 1011.6
20260509144045 23 0 0.0 3.2 0.00 0.00 0.00 96 1011.4
20260509143545 23 21 0.0 6.4 0.00 0.00 0.00 96 1011.4
20260509143115 23 21 0.0 6.4 0.00 0.00 0.00 96 1011.4
20260509142544 23 0 0.0 6.4 0.00 0.00 0.00 96 1011.2
20260509142044 22 0 1.6 6.4 0.00 0.00 0.00 96 1011.3
20260509141551 22 21 0.0 3.2 0.00 0.00 0.00 96 1011.2
20260509141045 22 0 0.0 6.4 0.00 0.00 0.00 97 1011.1
20260509140545 22 21 1.6 6.4 0.00 0.00 0.00 97 1011.1
20260509135546 22 0 0.0 3.2 0.00 0.00 0.00 97 1011.1
20260509135048 22 0 0.0 3.2 0.00 0.00 0.00 97 1011.0
20260509134608 22 0 0.0 0.0 0.00 0.00 0.00 97 1011.1
20260509134044 22 0 0.0 0.0 0.00 0.00 0.00 97 1011.4
20260509133551 22 0 0.0 0.0 0.00 0.00 0.00 97 1011.4
20260509133057 22 0 0.0 0.0 0.00 0.00 0.00 97 1011.5
20260509132547 22 0 0.0 0.0 0.00 0.00 0.00 97 1011.6
20260509132051 22 0 0.0 0.0 0.00 0.00 0.00 97 1011.5
20260509131558 22 0 0.0 0.0 0.00 0.00 0.00 97 1011.7
20260509131046 22 0 0.0 0.0 0.00 0.00 0.00 97 1011.6
20260509130547 22 0 0.0 0.0 0.00 0.00 0.00 97 1011.6
20260509125547 22 0 0.0 0.0 0.00 0.00 0.00 97 1011.3
20260509125046 22 0 0.0 0.0 0.00 0.00 0.00 97 1011.2
20260509124556 22 0 0.0 0.0 0.00 0.00 0.00 97 1011.2
20260509124048 22 0 0.0 0.0 0.00 0.00 0.00 97 1011.0
20260509123550 22 0 0.0 0.0 0.00 0.00 0.00 97 1011.1
20260509123111 22 0 0.0 0.0 0.00 0.00 0.00 97 1011.1
20260509122547 22 0 0.0 0.0 0.00 0.00 0.00 97 1011.2
20260509122047 22 0 0.0 3.2 0.00 0.00 0.00 97 1011.2
20260509121610 22 0 0.0 3.2 0.00 0.00 0.00 97 1011.0
20260509121049 22 0 0.0 3.2 0.00 0.00 0.00 96 1011.1
20260509120547 22 0 0.0 0.0 0.00 0.00 0.00 96 1011.2
20260509120115 22 0 0.0 0.0 0.00 0.00 0.00 96 1011.3
20260509115547 22 0 0.0 1.6 0.00 0.00 0.00 96 1011.1
20260509115047 22 0 0.0 1.6 0.00 0.00 0.00 96 1011.1
20260509114601 22 0 0.0 1.6 0.00 0.00 0.00 96 1011.2
20260509114047 22 0 0.0 0.0 0.00 0.00 0.00 96 1011.4
20260509113550 22 0 0.0 1.6 0.00 0.00 0.00 96 1011.8
20260509113050 22 0 0.0 1.6 0.00 0.00 0.00 96 1011.7
20260509112546 22 0 0.0 1.6 0.00 0.00 0.00 96 1011.9
20260509112047 22 0 0.0 0.0 0.00 0.00 0.00 96 1012.0
20260509111600 22 0 0.0 0.0 0.00 0.00 0.00 96 1012.0
20260509111048 22 0 0.0 0.0 0.00 0.00 0.00 96 1011.9
20260509110548 22 0 0.0 0.0 0.00 0.00 0.00 96 1011.9
20260509110053 22 0 0.0 0.0 0.00 0.00 0.00 96 1012.1
20260509105546 22 0 0.0 0.0 0.00 0.00 0.00 96 1012.1
20260509105047 22 0 0.0 0.0 0.00 0.00 0.00 96 1012.0
20260509104551 22 0 0.0 0.0 0.00 0.00 0.00 96 1012.2
20260509104046 22 0 0.0 0.0 0.00 0.00 0.00 96 1012.2
20260509103546 22 0 0.0 0.0 0.00 0.00 0.00 96 1012.3
20260509103103 22 0 0.0 0.0 0.00 0.00 0.00 96 1012.3
20260509102548 22 0 0.0 0.0 0.00 0.00 0.00 96 1012.3
20260509102047 22 0 0.0 0.0 0.00 0.00 0.00 96 1012.1
20260509101617 22 0 0.0 0.0 0.00 0.00 0.00 96 1012.1
20260509101046 22 0 0.0 0.0 0.00 0.00 0.00 96 1011.8
20260509100548 22 0 0.0 0.0 0.00 0.00 0.00 96 1011.4
20260509100051 22 0 0.0 0.0 0.00 0.00 0.00 96 1011.1
20260509095547 22 0 0.0 0.0 0.00 0.00 0.00 96 1010.8
20260509095047 22 0 0.0 0.0 0.00 0.00 0.00 96 1010.8
20260509094559 22 0 0.0 0.0 0.00 0.00 0.00 95 1010.9
20260509094047 22 0 0.0 0.0 0.00 0.00 0.00 95 1010.9
20260509093547 22 0 0.0 0.0 0.00 0.00 0.00 95 1010.9
20260509093054 22 0 0.0 0.0 0.00 0.00 0.00 95 1010.9
20260509092546 22 0 0.0 0.0 0.00 0.00 0.00 95 1010.8
20260509092046 22 0 0.0 0.0 0.00 0.00 0.00 95 1010.8
20260509091603 22 0 0.0 0.0 0.00 0.00 0.00 95 1010.7
20260509091047 22 0 0.0 0.0 0.00 0.00 0.00 95 1010.7
20260509090547 22 0 0.0 0.0 0.00 0.00 0.00 95 1010.8
20260509085546 22 0 0.0 0.0 0.00 0.00 0.00 94 1010.6
20260509085046 22 0 0.0 0.0 0.00 0.00 0.00 94 1010.7
20260509084553 22 0 0.0 0.0 0.00 0.00 0.00 94 1010.8
20260509084049 22 0 0.0 0.0 0.00 0.00 0.00 94 1010.7
20260509083547 22 0 0.0 0.0 0.00 0.00 0.00 94 1010.8
20260509083050 22 0 0.0 0.0 0.00 0.00 0.00 94 1010.9
20260509082547 22 0 0.0 0.0 0.00 0.00 0.00 94 1011.3
20260509082047 22 0 0.0 0.0 0.00 0.00 0.00 94 1011.3
20260509081606 22 0 0.0 0.0 0.00 0.00 0.00 94 1011.4
20260509081047 22 0 0.0 0.0 0.00 0.00 0.00 93 1011.3
20260509080546 22 0 0.0 0.0 0.00 0.00 0.00 93 1011.1
20260509080051 22 0 0.0 0.0 0.00 0.00 0.00 93 1011.1
20260509075548 22 0 0.0 0.0 0.00 0.00 0.00 93 1011.1
20260509075051 22 0 0.0 0.0 0.00 0.00 0.00 93 1011.0
20260509074557 22 0 0.0 0.0 0.00 0.00 0.00 93 1011.0
20260509074046 22 0 0.0 0.0 0.00 0.00 0.00 93 1011.0
20260509073550 22 0 0.0 0.0 0.00 0.00 0.00 93 1011.1
20260509073107 22 0 0.0 0.0 0.00 0.00 0.00 93 1011.1
20260509072550 22 0 0.0 0.0 0.00 0.00 0.00 93 1011.3
20260509072046 22 0 0.0 0.0 0.00 0.00 0.00 92 1011.2
20260509071556 22 0 0.0 0.0 0.00 0.00 0.00 92 1011.2
20260509071048 22 0 0.0 0.0 0.00 0.00 0.00 92 1011.4
20260509070547 22 0 0.0 0.0 0.00 0.00 0.00 92 1011.4
20260509070051 22 0 0.0 1.6 0.00 0.00 0.00 92 1011.4
20260509065547 22 0 0.0 3.2 0.00 0.00 0.00 92 1011.4
20260509065047 22 0 0.0 3.2 0.00 0.00 0.00 92 1011.4
20260509064606 22 0 0.0 1.6 0.00 0.00 0.00 92 1011.2
20260509064048 22 0 0.0 1.6 0.00 0.00 0.00 92 1010.8
20260509063548 22 0 0.0 1.6 0.00 0.00 0.00 92 1011.0
20260509063050 23 0 0.0 4.8 0.00 0.00 0.00 91 1011.0
20260509062548 23 0 1.6 4.8 0.00 0.00 0.00 91 1011.0
20260509062047 23 0 0.0 4.8 0.00 0.00 0.00 91 1011.1
20260509061553 23 22 0.0 6.4 0.00 0.00 0.00 91 1011.0
20260509061048 23 12 1.6 6.4 0.00 0.00 0.00 91 1010.9
20260509060548 23 20 0.0 4.8 0.00 0.00 0.00 91 1010.8
20260509060053 23 35 0.0 4.8 0.00 0.00 0.00 90 1010.8
20260509055548 23 37 1.6 9.7 0.00 0.00 0.00 90 1010.8